カタログに戻る

DELTA 1 DEB

運用中SSO
NORAD 21443·DEBRIS·🇺🇸 United States

打ち上げ Jun 12, 1975 から Vandenberg Space Force Base

Loading…

次のパス (今後24時間)

TLE

最新Source: Space-Track

元期: Sep 14, 2026, 07:32 UTC

1 21443U 75052EB  26257.31407530  .00000038  00000-0  16497-3 0  9999
2 21443  99.8433  23.9537 0068827 100.4863 288.4753 13.31721196718506

AllMySatでDELTA 1 DEBをリアルタイム追跡

Download on the App Store